This is the latest recevied weather packets stored in our database for station/object CQ0XSM-11. If no packets are shown the sender has not sent any weather packets the latest 10 day(s).
| Time | Temp. | Humidity | Pressure | Rain* | Wind** | Luminosity | Snow |
|---|---|---|---|---|---|---|---|
| 1777911175 | 14.44° C | 51% | 996.2 hPa | 0 mm | - | - | - |
| 1777910854 | 14.44° C | 48% | 996.2 hPa | 0 mm | - | - | - |
| 1777910560 | 13.89° C | 52% | 996.1 hPa | 0 mm | - | - | - |
| 1777910262 | 13.89° C | 52% | 996.2 hPa | 0 mm | - | - | - |
| 1777909959 | 13.89° C | 52% | 996.2 hPa | 0 mm | - | - | - |
| 1777909641 | 14.44° C | 49% | 996.2 hPa | 0 mm | - | - | - |
| 1777909359 | 14.44° C | 50% | 996.2 hPa | 0 mm | - | - | - |
| 1777909044 | 14.44° C | 50% | 996 hPa | 0 mm | - | - | - |
| 1777908741 | 14.44° C | 51% | 996.2 hPa | 0 mm | - | - | - |
| 1777908429 | 14.44° C | 49% | 996.2 hPa | 0 mm | - | - | - |
| 1777908145 | 14.44° C | 51% | 996.2 hPa | 0 mm | - | - | - |
| 1777907834 | 14.44° C | 52% | 996.2 hPa | 0 mm | - | - | - |
| 1777907536 | 13.89° C | 52% | 996.3 hPa | 0 mm | - | - | - |
| 1777907216 | 13.89° C | 53% | 996.3 hPa | 0 mm | - | - | - |
| 1777906927 | 13.89° C | 51% | 996.3 hPa | 0 mm | - | - | - |
| 1777906603 | 14.44° C | 52% | 996.3 hPa | 0 mm | - | - | - |
| 1777906312 | 15° C | 48% | 996.4 hPa | 0 mm | - | - | - |
| 1777906003 | 14.44° C | 51% | 996.3 hPa | 0 mm | - | - | - |
| 1777905704 | 14.44° C | 51% | 996.3 hPa | 0 mm | - | - | - |
| 1777905397 | 14.44° C | 53% | 996.4 hPa | 0 mm | - | - | - |
| 1777905117 | 13.89° C | 52% | 996.4 hPa | 0 mm | - | - | - |
| 1777904498 | 14.44° C | 52% | 996.4 hPa | 0 mm | - | - | - |
| 1777904184 | 14.44° C | 56% | 996.3 hPa | 0 mm | - | - | - |
| 1777903574 | 14.44° C | 59% | 996.3 hPa | 0 mm | - | - | - |
| 1777903286 | 13.89° C | 57% | 996.5 hPa | 0 mm | - | - | - |
* Rain since midnight (hover to see other rain measurements)
** Current wind speed in m/s (hover to see current wind gust speed)